Location: Bluff Heights
(33.7692°N, 118.1592°W)
Time: 09:09:56
(UTC+00:00)

Explorer 7 - Visible Passes

Search period start: 31 July 2021 00:00
Search period end: 10 August 2021 00:00
Orbit: 484 x 676 km, 50.3° (Epoch: 30 July)

Date Brightness Start Highest point End Pass type
(mag) Time Alt. Az. Time Alt. Az. Time Alt. Az.
31 Jul 7.9 11:32:49 22° S 11:34:22 31° SE 11:37:46 10° ENE visible
01 Aug 6.8 11:37:09 34° SSW 11:38:34 60° SE 11:42:20 10° NE visible
02 Aug 6.6 11:41:26 35° WSW 11:42:51 72° NW 11:46:41 10° NE visible
03 Aug 9.5 10:09:22 12° E 10:09:22 12° E 10:09:47 10° E visible
03 Aug 7.4 11:45:39 26° W 11:47:13 40° NW 11:50:51 10° NE visible
04 Aug 9.2 10:13:32 17° ENE 10:13:32 17° ENE 10:14:40 10° ENE visible
04 Aug 8.2 11:49:49 17° WNW 11:51:40 25° NNW 11:54:53 10° NNE visible
05 Aug 8.9 10:17:39 22° ENE 10:17:39 22° ENE 10:19:09 10° NE visible
05 Aug 8.8 11:53:56 11° WNW 11:56:11 17° NNW 11:58:47 10° NNE visible
06 Aug 8.8 10:21:44 25° NE 10:21:44 25° NE 10:23:27 10° NE visible
06 Aug 9.1 11:59:08 10° NW 12:00:48 12° NNW 12:02:27 10° N visible
07 Aug 8.8 10:25:47 23° NNE 10:25:47 23° NNE 10:27:35 10° NNE visible
08 Aug 9.0 10:29:47 19° N 10:29:47 19° N 10:31:35 10° NNE visible
09 Aug 9.2 10:33:47 15° NNW 10:33:47 15° NNW 10:35:25 10° NNE visible
